Find PAS 7

NORAD ID: 25473 Int'l Des: 1998-052 Owner: PAN Country: US operational
HEOCIRCULAR

Live-Position

3D-Globus wird geladen...

Über PAS 7

Beschreibung wird geladen...

Nächste Überflüge

Passes for default location (London). Set your location on the main map for personalized predictions.

Höhenverlauf

Loading altitude history...

Zweizeiliger Elementsatz

1 25473U 98052A 26105.97961196 -.00000032 00000-0 00000-0 0 9993
2 25473 10.3020 52.6918 0005478 197.5299 168.9067 0.98210135100025
Epoch: 15. Apr. 2026 • Age: 13 hours

Aktueller Status

Höhe 36351.1 km
Geschwindigkeit 3.06 km/s
Subsatellitenpunkt -2.51°S, 141.83°W
Startdatum 16. Sept. 1998
Alter 27.5 years
Typ other

Technische Details

Klassifizierung Payload
Masse 3838.00 kg
Trockenmasse 1400.00 kg
Gesamtmasse 3838.00 kg
Länge 6.10 m
Durchmesser 2.40 m
Spannweite 26.00 m
Form Box + 2 Pan
Hersteller LOR
Bus-Typ FS-1300
Phasenstatus Unknown Active Status
Besitzer/Staat PAN/US

Most Searched